This demonstration page uses our WeatherBlox Daily Observations layout. Learn more.

Left ArrowRight Arrow

39.01783, -85.05884

Hourly Observations for December 16, 2016

Temp ( °F °C ) Dew Point ( °F °C ) Humidity (%) Winds ( mph kmh ) Pressure ( in mb ) Visibility ( mi km ) Precip ( " mm )
12:52 am 00:52 Cloudy 14 -10 -4 -20 44 44 N 3 6 30.44 1031 10 16 N/A
1:52 am 01:52 Cloudy 14 -10 -3 -19.4 47 47 ENE 5 7 30.42 1030 10 16 N/A
2:52 am 02:52 Cloudy 14 -10 -2 -18.9 49 49 E 6 9 30.42 1030 10 16 N/A
3:52 am 03:52 Cloudy 14 -10 N/A 53 53 SE 7 11 30.40 1029 10 16 N/A
4:52 am 04:52 Cloudy 15 -9.4 N/A 51 51 E 5 7 30.42 1030 10 16 N/A
5:52 am 05:52 Cloudy 15 -9.4 1 -17.2 53 53 E 9 15 30.38 1029 10 16 N/A
6:52 am 06:52 Cloudy 15 -9.4 -2 -18.9 46 46 E 7 11 30.40 1029 10 16 N/A
7:52 am 07:52 Cloudy 15 -9.4 N/A 51 51 SE 9 15 30.38 1029 10 16 N/A
8:52 am 08:52 Cloudy 16 -8.9 N/A 49 49 ESE 9 15 30.35 1028 10 16 N/A
9:52 am 09:52 Cloudy 18 -7.8 -1 -18.3 43 43 SE 10 17 30.35 1028 10 16 N/A
10:52 am 10:52 Cloudy 19 -7.2 1 -17.2 45 45 SE 12 19 30.32 1027 10 16 N/A
11:52 am 11:52 Cloudy 21 -6.1 N/A 39 39 SE 15 24 30.27 1025 10 16 N/A
12:52 pm 12:52 Cloudy 23 -5 1 -17.2 38 38 SE 14 22 30.22 1024 10 16 N/A
1:52 pm 13:52 Cloudy 24 -4.4 2 -16.7 38 38 SE 12 19 30.18 1022 10 16 N/A
2:52 pm 14:52 Cloudy 25 -3.9 1 -17.2 35 35 SE 13 20 30.13 1020 10 16 N/A
3:52 pm 15:52 Cloudy 26 -3.3 2 -16.7 35 35 SE 12 19 30.10 1019 10 16 N/A
4:52 pm 16:52 Cloudy 26 -3.3 2 -16.7 35 35 SE 9 15 30.08 1019 10 16 N/A
5:52 pm 17:52 Cloudy 27 -2.8 3 -16.1 35 35 SE 14 22 30.04 1017 10 16 N/A
6:52 pm 18:52 Cloudy 27 -2.8 5 -15 39 39 SE 13 20 30.00 1016 10 16 N/A
7:52 pm 19:52 Cloudy 29 -1.7 7 -13.9 39 39 SSE 13 20 29.96 1015 10 16 N/A
8:52 pm 20:52 Cloudy 30 -1.1 8 -13.3 39 39 SSE 12 19 29.93 1014 10 16 N/A
9:52 pm 21:52 Cloudy 32 undefined 10 -12.2 40 40 SSE 13 20 29.87 1011 10 16 N/A
10:52 pm 22:52 Cloudy with Light Freezing Drizzle 31 -0.6 21 -6.1 67 67 SE 13 20 29.80 1009 10 16 N/A
11:52 pm 23:52 Cloudy with Light Freezing Drizzle 32 undefined 27 -2.8 82 82 SSE 16 26 29.76 1008 6 10 0.04 1.02

Powered by AerisWeather